Home > Weather > Toledo > Past weeks

Flag for U.S.A. Weather for the Past 2 Weeks in Toledo, Ohio, U.S.A.

Now
38 °F

More clouds than sun.


Feels Like: 33 °F
Forecast: 21 / 38 °F
Wind: 7 mph from Southwest

Location: Toledo Suburban Airport

Current Time: Feb 5, 2016 at 5:51:26 PM

Latest Report: Feb 5, 2016 at 4:54 PM


Visibility: 10 mi

Pressure: 30.30 "Hg

Humidity: 52%

Dew point: 22 °F

Location of ToledoLocation

Historic Weather in Toledo — Graph

°F

Toledo Temperature Yesterday

Maximum temperature yesterday: 34 °F (at 12:14 AM)
Minimum temperature yesterday: 23 °F (at 11:55 PM)
Average temperature yesterday: 30 °F

High & Low Weather Summary for the Past Weeks

 TemperatureHumidityPressure
High55 °F (Jan 31, 1:15 PM)98% (Feb 2, 11:55 PM)30.38 "Hg (Feb 2, 11:55 PM)
Low14 °F (Jan 24, 5:15 AM)46% (Feb 5, 2:35 PM)29.46 "Hg (Feb 3, 4:55 AM)
Average33 °F76%29.96 "Hg
* Reported Jan 21 4:35 PM — Feb 5 4:35 PM, Toledo, Weather by CustomWeather, © 2016

Note: Actual official high and low records may vary slightly from our data, if they occured in-between our weather recording intervals... More about our weather records

Advertising

Toledo Weather History for the Previous 24 Hours

 ConditionsComfort  
Time TempWeatherWind HumidityBarometerVisibility
4:35 PM
Fri, Feb 5
38 °FMostly cloudy.7 mph51%30.29 "Hg10 mi
3:54 PM38 °FMore clouds than sun.8 mph51%30.29 "Hg10 mi
3:35 PM39 °FBroken clouds.7 mph50%30.30 "Hg10 mi
3:15 PM39 °FBroken clouds.10 mph48%30.29 "Hg10 mi
2:54 PM38 °FScattered clouds.8 mph49%30.29 "Hg10 mi
2:35 PM38 °FScattered clouds.12 mph46%30.30 "Hg10 mi
2:15 PM39 °FScattered clouds.7 mph47%30.30 "Hg10 mi
1:54 PM38 °FScattered clouds.7 mph49%30.31 "Hg10 mi
1:35 PM38 °FSunny.7 mph49%30.31 "Hg10 mi
1:15 PM38 °FSunny.6 mph52%30.33 "Hg10 mi
12:55 PM36 °FSunny.7 mph54%30.34 "Hg10 mi
12:35 PM36 °FSunny.7 mph53%30.35 "Hg10 mi
12:15 PM36 °FSunny.7 mph54%30.35 "Hg10 mi
11:55 AM36 °FSunny.6 mph55%30.36 "Hg10 mi
11:35 AM34 °FSunny.7 mph59%30.37 "Hg10 mi
11:14 AM33 °FSunny.6 mph63%30.37 "Hg10 mi
10:55 AM32 °FSunny.5 mph67%30.38 "Hg10 mi
10:35 AM31 °FSunny.6 mph69%30.38 "Hg10 mi
10:15 AM29 °FSunny.3 mph72%30.37 "Hg10 mi
9:55 AM28 °FSunny.3 mph76%30.37 "Hg10 mi
9:35 AM26 °FSunny.5 mph79%30.37 "Hg10 mi
9:15 AM25 °FSunny.No wind82%30.37 "Hg10 mi
8:55 AM23 °FSunny.No wind85%30.37 "Hg10 mi
8:35 AM21 °FSunny.No wind88%30.37 "Hg10 mi
8:14 AM20 °FSunny.No wind88%30.37 "Hg10 mi
7:55 AM19 °FSunny.No wind89%30.37 "Hg10 mi
7:35 AM18 °FClear.No wind91%30.36 "Hg10 mi
7:14 AM18 °FPassing clouds.No wind91%30.35 "Hg10 mi
6:55 AM17 °FPassing clouds.No wind92%30.34 "Hg7 mi
6:35 AM18 °FClear.No wind91%30.34 "Hg10 mi
6:14 AM18 °FClear.No wind88%30.34 "Hg10 mi
5:55 AM18 °FClear.No wind90%30.34 "Hg10 mi
5:35 AM17 °FClear.No wind92%30.33 "Hg10 mi
5:14 AM18 °FClear.No wind91%30.33 "Hg10 mi
4:55 AM18 °FClear.No wind89%30.33 "Hg10 mi
4:35 AM20 °FClear.No wind87%30.33 "Hg10 mi
4:14 AM20 °FClear.No wind88%30.33 "Hg10 mi
3:55 AM20 °FClear.No wind88%30.33 "Hg10 mi
3:35 AM19 °FClear.No wind87%30.33 "Hg10 mi
3:14 AM20 °FClear.No wind84%30.33 "Hg10 mi
2:55 AM21 °FClear.No wind82%30.33 "Hg10 mi
2:35 AM21 °FClear.No wind82%30.33 "Hg10 mi
2:15 AM21 °FClear.3 mph81%30.32 "Hg10 mi
1:55 AM22 °FClear.No wind79%30.31 "Hg10 mi
1:35 AM22 °FClear.6 mph80%30.31 "Hg10 mi
1:15 AM22 °FClear.No wind80%30.31 "Hg10 mi
12:35 AM22 °FClear.3 mph81%30.31 "Hg10 mi
11:55 PM
Thu, Feb 4
23 °FClear.3 mph82%30.30 "Hg10 mi
11:15 PM23 °FClear.3 mph78%30.29 "Hg10 mi
10:55 PM24 °FClear.5 mph77%30.29 "Hg10 mi
10:35 PM24 °FPassing clouds.5 mph77%30.28 "Hg10 mi
9:55 PM25 °FOvercast.6 mph74%30.28 "Hg10 mi
9:15 PM26 °FOvercast.10 mph73%30.27 "Hg10 mi
8:55 PM27 °FOvercast.7 mph70%30.27 "Hg10 mi
8:15 PM27 °FMostly cloudy.8 mph77%30.26 "Hg10 mi
7:55 PM28 °FMostly cloudy.7 mph79%30.26 "Hg10 mi
7:34 PM28 °FOvercast.8 mph77%30.25 "Hg10 mi
7:15 PM28 °FMostly cloudy.8 mph78%30.25 "Hg10 mi
6:55 PM28 °FMostly cloudy.10 mph80%30.24 "Hg10 mi
6:34 PM28 °FMostly cloudy.8 mph82%30.23 "Hg10 mi
5:55 PM29 °FLight snow. Overcast.8 mph83%30.22 "Hg10 mi
Weather by CustomWeather, © 2016

See weather overviewHow to use our weather pages